• In Russia
  • List of Countries
  • For 7 days
  • Water Temperature
  • Satellite Maps
  • Weather Map
  • Weather Widgets
  • user-avatar
    Login

    Hourly Weather Odienne

    Today, 20 May, Sunday

    Time Temperature Precipitation Wind Pressure Humidity
    00:00 +26°C° 0 mm 1 mps 723 mmHg 77%
    01:00 +26°C° 0 mm 1 mps 723 mmHg 79%
    02:00 +26°C° 0 mm 1 mps 722 mmHg 82%
    03:00 +25°C° 0 mm 1 mps 722 mmHg 84%
    04:00 +25°C° 0 mm 1 mps 722 mmHg 86%
    05:00 +25°C° 0 mm 1 mps 722 mmHg 87%
    06:00 +27°C° 0 mm 1 mps 723 mmHg 76%
    07:00 +29°C° 0 mm 1 mps 723 mmHg 66%
    08:00 +32°C° 0 mm 1 mps 723 mmHg 55%
    09:00 +36°C° 0 mm 1 mps 723 mmHg 45%
    10:00 +40°C° 0 mm 1 mps 723 mmHg 36%
    11:00 +41°C° 0 mm 0 mps 723 mmHg 26%
    12:00 +43°C° 0 mm 1 mps 723 mmHg 25%
    13:00 +42°C° 0 mm 2 mps 722 mmHg 23%
    14:00 +42°C° 0 mm 2 mps 721 mmHg 22%
    15:00 +40°C° 0 mm 2 mps 721 mmHg 25%
    16:00 +39°C° 0 mm 2 mps 721 mmHg 28%
    17:00 +37°C° 0 mm 2 mps 720 mmHg 31%
    18:00 +36°C° 0 mm 2 mps 721 mmHg 35%
    19:00 +35°C° 0 mm 2 mps 721 mmHg 39%
    20:00 +34°C° 0 mm 2 mps 722 mmHg 42%
    21:00 +32°C° 0 mm 2 mps 722 mmHg 47%
    22:00 +31°C° 0 mm 2 mps 722 mmHg 51%
    23:00 +30°C° 0 mm 2 mps 722 mmHg 55%

    Tomorrow, 21 May, Monday

    Time Temperature Precipitation Wind Pressure Humidity
    00:00 +29°C° 0 mm 2 mps 722 mmHg 59%
    01:00 +29°C° 0 mm 2 mps 722 mmHg 63%
    02:00 +28°C° 0 mm 2 mps 722 mmHg 67%
    03:00 +27°C° 0 mm 2 mps 722 mmHg 71%
    04:00 +27°C° 0 mm 2 mps 722 mmHg 75%
    05:00 +26°C° 0 mm 1 mps 722 mmHg 80%
    06:00 +28°C° 0 mm 2 mps 722 mmHg 73%
    07:00 +30°C° 0 mm 2 mps 723 mmHg 67%
    08:00 +31°C° 0 mm 3 mps 723 mmHg 60%
    09:00 +35°C° 0 mm 2 mps 723 mmHg 51%
    10:00 +38°C° 0 mm 2 mps 723 mmHg 43%
    11:00 +41°C° 0 mm 1 mps 723 mmHg 34%
    12:00 +40°C° 0 mm 1 mps 722 mmHg 33%
    13:00 +40°C° 0 mm 1 mps 721 mmHg 33%
    14:00 +40°C° 0 mm 1 mps 721 mmHg 32%
    15:00 +39°C° 0 mm 1 mps 721 mmHg 35%
    16:00 +37°C° 0 mm 1 mps 721 mmHg 37%
    17:00 +36°C° 0 mm 1 mps 720 mmHg 40%
    18:00 +35°C° 0.4 mm 2 mps 721 mmHg 49%
    19:00 +32°C° 0.4 mm 2 mps 721 mmHg 58%
    20:00 +30°C° 0.4 mm 2 mps 722 mmHg 67%
    21:00 +29°C° 0.4 mm 2 mps 722 mmHg 72%
    22:00 +28°C° 0.4 mm 2 mps 722 mmHg 76%
    23:00 +27°C° 0.4 mm 2 mps 722 mmHg 81%

    Day after tomorrow, 22 May, Tuesday

    Time Temperature Precipitation Wind Pressure Humidity
    00:00 +27°C° 0.1 mm 2 mps 722 mmHg 81%
    01:00 +27°C° 0.1 mm 2 mps 722 mmHg 82%
    02:00 +26°C° 0.1 mm 2 mps 722 mmHg 82%
    03:00 +26°C° 0.1 mm 2 mps 722 mmHg 84%
    04:00 +26°C° 0.1 mm 1 mps 722 mmHg 86%
    05:00 +25°C° 0.1 mm 1 mps 722 mmHg 87%
    06:00 +27°C° 0 mm 1 mps 722 mmHg 79%
    07:00 +29°C° 0 mm 1 mps 723 mmHg 70%
    08:00 +31°C° 0 mm 2 mps 724 mmHg 62%
    09:00 +34°C° 0 mm 2 mps 723 mmHg 53%
    10:00 +37°C° 0 mm 2 mps 723 mmHg 45%
    11:00 +39°C° 0 mm 2 mps 723 mmHg 37%
    12:00 +40°C° 0 mm 2 mps 723 mmHg 35%
    13:00 +40°C° 0 mm 2 mps 722 mmHg 33%
    14:00 +40°C° 0 mm 2 mps 721 mmHg 31%
    15:00 +37°C° 3.2 mm 3 mps 720 mmHg 45%
    16:00 +34°C° 3.2 mm 3 mps 720 mmHg 58%
    17:00 +30°C° 3.2 mm 3 mps 720 mmHg 72%
    18:00 +29°C° 1.1 mm 3 mps 720 mmHg 74%
    19:00 +28°C° 1.1 mm 3 mps 721 mmHg 76%
    20:00 +27°C° 1.1 mm 3 mps 722 mmHg 78%
    21:00 +27°C° 1.6 mm 3 mps 722 mmHg 80%
    22:00 +26°C° 1.6 mm 3 mps 722 mmHg 82%
    23:00 +26°C° 1.6 mm 4 mps 723 mmHg 83%

    23 May, Wednesday

    Time Temperature Precipitation Wind Pressure Humidity
    00:00 +26°C° 0 mm 3 mps 722 mmHg 84%
    01:00 +26°C° 0 mm 2 mps 722 mmHg 85%
    02:00 +25°C° 0 mm 1 mps 721 mmHg 85%
    03:00 +25°C° 0 mm 1 mps 722 mmHg 86%
    04:00 +25°C° 0 mm 1 mps 722 mmHg 87%
    05:00 +25°C° 0 mm 1 mps 722 mmHg 88%
    06:00 +26°C° 0 mm 1 mps 723 mmHg 83%
    07:00 +27°C° 0 mm 1 mps 724 mmHg 78%
    08:00 +29°C° 0 mm 2 mps 724 mmHg 73%
    09:00 +31°C° 0 mm 2 mps 724 mmHg 66%
    10:00 +32°C° 0 mm 2 mps 724 mmHg 58%
    11:00 +35°C° 0 mm 3 mps 724 mmHg 51%
    12:00 +36°C° 0 mm 3 mps 723 mmHg 48%
    13:00 +36°C° 0 mm 3 mps 723 mmHg 45%
    14:00 +37°C° 0 mm 3 mps 722 mmHg 42%
    15:00 +36°C° 0 mm 2 mps 722 mmHg 45%
    16:00 +35°C° 0 mm 2 mps 722 mmHg 48%
    17:00 +34°C° 0 mm 2 mps 722 mmHg 50%
    18:00 +32°C° 0 mm 2 mps 722 mmHg 55%
    19:00 +31°C° 0 mm 2 mps 723 mmHg 60%
    20:00 +29°C° 0 mm 2 mps 723 mmHg 65%
    21:00 +29°C° 0 mm 2 mps 723 mmHg 68%
    22:00 +28°C° 0 mm 2 mps 724 mmHg 71%
    23:00 +28°C° 0 mm 2 mps 724 mmHg 74%

    24 May, Thursday

    Time Temperature Precipitation Wind Pressure Humidity
    00:00 +27°C° 0 mm 2 mps 723 mmHg 75%
    01:00 +27°C° 0 mm 1 mps 723 mmHg 77%
    02:00 +27°C° 0 mm 1 mps 722 mmHg 79%
    03:00 +26°C° 0 mm 1 mps 723 mmHg 81%
    04:00 +26°C° 0 mm 1 mps 723 mmHg 83%
    05:00 +26°C° 0 mm 1 mps 723 mmHg 84%
    06:00 +27°C° 0 mm 1 mps 723 mmHg 79%
    07:00 +28°C° 0 mm 2 mps 724 mmHg 73%
    08:00 +30°C° 0 mm 2 mps 725 mmHg 67%
    09:00 +32°C° 0 mm 2 mps 724 mmHg 58%
    10:00 +35°C° 0 mm 2 mps 724 mmHg 49%
    11:00 +38°C° 0 mm 2 mps 724 mmHg 40%
    12:00 +38°C° 0 mm 2 mps 723 mmHg 38%
    13:00 +39°C° 0 mm 2 mps 722 mmHg 35%
    14:00 +40°C° 0 mm 2 mps 722 mmHg 32%
    15:00 +38°C° 0 mm 2 mps 722 mmHg 36%
    16:00 +37°C° 0 mm 2 mps 722 mmHg 40%
    17:00 +36°C° 0 mm 2 mps 722 mmHg 43%
    18:00 +34°C° 0.8 mm 2 mps 722 mmHg 54%
    19:00 +30°C° 0.8 mm 2 mps 723 mmHg 65%
    20:00 +28°C° 0.8 mm 2 mps 723 mmHg 75%
    21:00 +28°C° 0.1 mm 2 mps 723 mmHg 78%
    22:00 +28°C° 0.1 mm 2 mps 723 mmHg 80%
    23:00 +27°C° 0.1 mm 2 mps 723 mmHg 82%

    25 May, Friday

    Time Temperature Precipitation Wind Pressure Humidity
    00:00 +27°C° 0 mm 2 mps 722 mmHg 83%
    01:00 +26°C° 0 mm 2 mps 722 mmHg 84%
    02:00 +26°C° 0 mm 2 mps 721 mmHg 85%
    03:00 +26°C° 0 mm 1 mps 722 mmHg 86%
    04:00 +25°C° 0 mm 1 mps 722 mmHg 87%
    05:00 +25°C° 0 mm 1 mps 722 mmHg 88%
    06:00 +27°C° 0 mm 1 mps 723 mmHg 80%
    07:00 +28°C° 0 mm 2 mps 723 mmHg 72%
    08:00 +30°C° 0 mm 2 mps 724 mmHg 64%
    09:00 +34°C° 0 mm 2 mps 724 mmHg 55%
    10:00 +36°C° 0 mm 1 mps 723 mmHg 46%
    11:00 +40°C° 0 mm 1 mps 723 mmHg 37%
    12:00 +40°C° 0 mm 1 mps 722 mmHg 36%
    13:00 +40°C° 0 mm 1 mps 722 mmHg 34%
    14:00 +40°C° 0 mm 1 mps 721 mmHg 33%
    15:00 +39°C° 0 mm 1 mps 721 mmHg 35%
    16:00 +37°C° 0 mm 1 mps 720 mmHg 38%
    17:00 +37°C° 0 mm 2 mps 720 mmHg 40%
    18:00 +35°C° 0 mm 2 mps 721 mmHg 45%
    19:00 +34°C° 0 mm 2 mps 721 mmHg 50%
    20:00 +31°C° 0 mm 2 mps 722 mmHg 55%
    21:00 +30°C° 0.7 mm 2 mps 722 mmHg 62%
    22:00 +29°C° 0.7 mm 2 mps 722 mmHg 69%
    23:00 +27°C° 0.7 mm 2 mps 721 mmHg 76%
    Show more